Leeuwarden, Netherlands

1:03 AM CET on January 23, 2017 (GMT +0100)
Leeuwarden Air Base

Weather History for EHLW - March, 2013

Change the Weather History Date:

Monday, March 18, 2013

  Actual Average Record
Temperature  
Mean Temperature 39 °F -  
Max Temperature 46 °F 50 °F 57 °F (2004)
Min Temperature 32 °F 37 °F 26 °F (2006)
Degree Days  
Heating Degree Days 26    
Moisture  
Dew Point 35 °F    
Average Humidity 91    
Maximum Humidity 100    
Minimum Humidity 62    
Precipitation  
Precipitation 0.02 in - - ()
Sea Level Pressure  
Sea Level Pressure 29.30 in    
Wind  
Wind Speed 11 mph ()    
Max Wind Speed 16 mph    
Max Gust Speed -    
Visibility 3.8 miles    
Events Rain , Snow    
Averages and records for this station are not official NWS values.
T = Trace of Precipitation, MM = Missing Value Source: Averaged Metar Reports

Daily Weather History Graph

Daily Weather History Graph

Search for Another Location

Airport or City:

Trip Planner

Search our weather history database for the weather conditions in past years. The results will help you decide how hot, cold, wet, or windy it might be!

Date:

Astronomy

Mar. 18, 2013 Rise Set
Actual Time 6:44 AM CET 6:46 PM CET
Civil Twilight 6:09 AM CET 7:21 PM CET
Nautical Twilight 5:28 AM CET 8:02 PM CET
Astronomical Twilight 4:46 AM CET 8:45 PM CET
Moon 9:43 AM CET (3/18) 1:19 AM CET (3/18)
Length of Visible Light 13h 11m
Length of Day
12h 02m
Waxing Crescent, 38% of the Moon is Illuminated
Mar 18
Waxing Crescent
Mar 19
First Quarter
Mar 27
Full
Apr 3
Last Quarter
Apr 10
New

Hourly Weather History & Observations

Time (CET) Temp. Windchill Dew Point Humidity Pressure Visibility Wind Dir Wind Speed Gust Speed Precip Events Conditions
12:04 AM 35.6 °F 25.9 °F 32.0 °F 87% 29.33 in 5.6 mi ESE 16.1 mph - N/A   Overcast
12:11 AM 35.6 °F 25.9 °F 32.0 °F 87% 29.33 in 3.7 mi ESE 16.1 mph - N/A   Overcast
12:25 AM 33.8 °F 23.5 °F 32.0 °F 93% 29.33 in 4.3 mi East 16.1 mph - N/A   Overcast
12:55 AM 33.8 °F 23.9 °F 32.0 °F 93% 29.33 in 4.3 mi ESE 15.0 mph - N/A   Overcast
1:00 AM 34 °F - 31 °F 85% 29.34 in 4 mi ESE 15.7 mph - - Rain Light Rain Showers
1:09 AM 33.8 °F 24.3 °F 32.0 °F 93% 29.33 in 3.7 mi ESE 13.8 mph - N/A Rain Light Rain
1:13 AM 33.8 °F 24.8 °F 30.2 °F 87% 29.33 in 3.1 mi East 12.7 mph - N/A Rain Drizzle
1:14 AM 33.8 °F 24.8 °F 30.2 °F 87% 29.33 in - East 12.7 mph - N/A Rain Drizzle
1:25 AM 33.8 °F 24.8 °F 30.2 °F 87% 29.33 in 1.4 mi East 12.7 mph - N/A Rain , Snow Light Snow
1:51 AM 32.0 °F 23.0 °F 30.2 °F 93% 29.33 in 1.4 mi East 11.5 mph - N/A Snow Snow
1:55 AM 32.0 °F 23.0 °F 30.2 °F 93% 29.33 in 1.4 mi East 11.5 mph - N/A Snow Light Snow
1:59 AM 32.0 °F 22.5 °F 30.2 °F 93% 29.33 in 1.3 mi East 12.7 mph - N/A Snow Light Snow
2:05 AM 32.0 °F 22.5 °F 30.2 °F 93% 29.33 in 1.2 mi East 12.7 mph - N/A Snow Light Snow
2:10 AM 32.0 °F 22.5 °F 30.2 °F 93% 29.30 in 1.2 mi East 12.7 mph - N/A Snow Light Snow Showers
2:21 AM 32.0 °F 22.5 °F 32.0 °F 100% 29.30 in 1.2 mi East 12.7 mph - N/A Snow Snow
2:25 AM 32.0 °F 23.0 °F 32.0 °F 100% 29.30 in 1.2 mi East 11.5 mph - N/A Snow Snow Showers
2:49 AM 32.0 °F 22.5 °F 32.0 °F 100% 29.30 in 1.4 mi East 12.7 mph - N/A Snow Light Snow
2:55 AM 32.0 °F 23.0 °F 32.0 °F 100% 29.30 in 1.5 mi East 11.5 mph - N/A Snow Snow Showers
2:59 AM 32.0 °F 22.5 °F 32.0 °F 100% 29.30 in 1.4 mi East 12.7 mph - N/A Snow Light Snow Showers
3:03 AM 32.0 °F 22.5 °F 32.0 °F 100% 29.30 in 0.9 mi East 12.7 mph - N/A Snow Light Snow
3:07 AM 32.0 °F 23.0 °F 32.0 °F 100% 29.30 in 1.0 mi East 11.5 mph - N/A Snow Light Snow
3:12 AM 32.0 °F 23.0 °F 32.0 °F 100% 29.30 in 0.9 mi East 11.5 mph - N/A Snow Light Snow
3:13 AM 32.0 °F 23.0 °F 32.0 °F 100% 29.30 in 1.0 mi East 11.5 mph - N/A Snow Light Snow
3:25 AM 32.0 °F 23.0 °F 32.0 °F 100% 29.27 in 1.2 mi East 11.5 mph - N/A Snow Light Snow
3:34 AM 32.0 °F 23.6 °F 32.0 °F 100% 29.27 in 1.2 mi East 10.4 mph - N/A Snow Light Snow
3:35 AM 32.0 °F 23.0 °F 32.0 °F 100% 29.27 in 1.2 mi East 11.5 mph - N/A Snow Light Snow
3:51 AM 32.0 °F 23.0 °F 32.0 °F 100% 29.27 in 1.4 mi East 11.5 mph - N/A Snow Light Snow
3:55 AM 32.0 °F 23.6 °F 32.0 °F 100% 29.27 in 1.5 mi East 10.4 mph - N/A Snow Light Snow
4:25 AM 33.8 °F 25.8 °F 32.0 °F 93% 29.24 in 1.7 mi ESE 10.4 mph - N/A   Overcast
4:55 AM 33.8 °F 25.8 °F 33.8 °F 100% 29.24 in 1.8 mi ESE 10.4 mph - N/A Rain Light Rain
5:01 AM 33.8 °F 25.8 °F 33.8 °F 100% 29.24 in 1.8 mi ESE 10.4 mph - N/A Rain Light Rain
5:05 AM 33.8 °F 26.4 °F 33.8 °F 100% 29.24 in 1.8 mi ESE 9.2 mph - N/A Rain Light Rain
5:16 AM 33.8 °F 26.4 °F 33.8 °F 100% 29.24 in 1.9 mi SE 9.2 mph - N/A Rain Light Rain
5:25 AM 33.8 °F 26.4 °F 33.8 °F 100% 29.24 in 2.2 mi SE 9.2 mph - N/A Rain Light Rain
5:47 AM 33.8 °F 26.4 °F 33.8 °F 100% 29.24 in 1.6 mi SE 9.2 mph - N/A Rain Light Rain
5:55 AM 33.8 °F 25.8 °F 33.8 °F 100% 29.24 in 1.6 mi SE 10.4 mph - N/A Rain Light Rain
5:59 AM 33.8 °F 25.8 °F 33.8 °F 100% 29.24 in 1.5 mi SSE 10.4 mph - N/A Rain , Snow Light Rain Showers
6:19 AM 33.8 °F 27.0 °F 33.8 °F 100% 29.24 in 1.5 mi SE 8.1 mph - N/A Rain , Snow Snow Showers
6:25 AM 33.8 °F 27.0 °F 33.8 °F 100% 29.24 in 1.4 mi SE 8.1 mph - N/A Rain , Snow Light Snow
6:29 AM 33.8 °F 26.4 °F 33.8 °F 100% 29.24 in 1.4 mi SE 9.2 mph - N/A Rain , Snow Light Rain
6:46 AM 35.6 °F 27.5 °F 35.6 °F 100% 29.24 in 1.6 mi SSE 11.5 mph - N/A Rain Light Rain
6:55 AM 35.6 °F 29.2 °F 35.6 °F 100% 29.24 in 2.8 mi SSE 8.1 mph - N/A Rain Light Rain
7:00 AM 36 °F - 35 °F 96% 29.26 in 3 mi SSE 8.9 mph - - Rain Heavy Rain
7:02 AM 35.6 °F 28.6 °F 35.6 °F 100% 29.24 in 2.2 mi SSE 9.2 mph - N/A Rain Light Rain
7:08 AM 35.6 °F 28.6 °F 35.6 °F 100% 29.24 in - SSE 9.2 mph - N/A   Mostly Cloudy
7:17 AM 35.6 °F 28.6 °F 35.6 °F 100% 29.24 in 3.1 mi SSE 9.2 mph - N/A   Mostly Cloudy
7:22 AM 35.6 °F 28.6 °F 35.6 °F 100% 29.24 in 3.1 mi SSE 9.2 mph - N/A   Overcast
7:25 AM 35.6 °F 28.6 °F 35.6 °F 100% 29.24 in 3.1 mi SSE 9.2 mph - N/A   Overcast
7:26 AM 35.6 °F 28.6 °F 35.6 °F 100% 29.24 in 3.1 mi SSE 9.2 mph - N/A   Overcast
7:34 AM 37.4 °F 30.8 °F 35.6 °F 93% 29.24 in 3.1 mi SSE 9.2 mph - N/A   Overcast
7:45 AM 37.4 °F 30.8 °F 35.6 °F 93% 29.24 in 3.1 mi SSE 9.2 mph - N/A   Overcast
7:55 AM 37.4 °F 30.8 °F 35.6 °F 93% 29.27 in 3.1 mi SSE 9.2 mph - N/A   Mostly Cloudy
8:01 AM 37.4 °F 30.8 °F 35.6 °F 93% 29.27 in - SSE 9.2 mph - N/A Rain Light Rain
8:03 AM 37.4 °F 31.4 °F 35.6 °F 93% 29.27 in 3.1 mi SSE 8.1 mph - N/A   Drizzle
8:13 AM 37.4 °F 31.4 °F 37.4 °F 100% 29.27 in 3.1 mi SSE 8.1 mph - N/A   Drizzle
8:19 AM 37.4 °F 32.1 °F 37.4 °F 100% 29.27 in 3.1 mi SSE 6.9 mph - N/A   Drizzle
8:25 AM 37.4 °F 31.4 °F 37.4 °F 100% 29.27 in 4.3 mi SSE 8.1 mph - N/A   Overcast
8:33 AM 37.4 °F 30.8 °F 37.4 °F 100% 29.27 in 3.7 mi South 9.2 mph - N/A Rain Rain
8:43 AM 37.4 °F 31.4 °F 37.4 °F 100% 29.27 in 4.3 mi South 8.1 mph - N/A Rain Light Rain
8:44 AM 37.4 °F 31.4 °F 37.4 °F 100% 29.27 in 4.3 mi South 8.1 mph - N/A Rain Light Rain
8:45 AM 37.4 °F 31.4 °F 37.4 °F 100% 29.27 in 4.3 mi South 8.1 mph - N/A Rain Light Rain
8:55 AM 37.4 °F 31.4 °F 37.4 °F 100% 29.27 in 3.7 mi South 8.1 mph - N/A   Drizzle
8:56 AM 37.4 °F 31.4 °F 37.4 °F 100% 29.27 in - South 8.1 mph - N/A Rain Light Rain
9:09 AM 37.4 °F 30.3 °F 37.4 °F 100% 29.27 in 5.6 mi South 10.4 mph - N/A   Overcast
9:14 AM 37.4 °F 30.8 °F 37.4 °F 100% 29.27 in 4.3 mi South 9.2 mph - N/A   Overcast
9:25 AM 37.4 °F 30.3 °F 37.4 °F 100% 29.27 in 5.6 mi South 10.4 mph - N/A   Overcast
9:36 AM 37.4 °F 30.3 °F 37.4 °F 100% 29.27 in 5.6 mi SSE 10.4 mph - N/A   Overcast
9:44 AM 39.2 °F 32.0 °F 37.4 °F 93% 29.27 in 5.6 mi South 11.5 mph - N/A   Overcast
9:55 AM 39.2 °F 31.6 °F 37.4 °F 93% 29.27 in 4.3 mi South 12.7 mph - N/A   Drizzle
10:01 AM 39.2 °F 32.0 °F 37.4 °F 93% 29.27 in 4.3 mi South 11.5 mph - N/A Rain Light Rain
10:25 AM 39.2 °F 31.6 °F 39.2 °F 100% 29.27 in 5.0 mi South 12.7 mph - N/A Rain Light Rain
10:30 AM 39.2 °F 31.2 °F 39.2 °F 100% 29.27 in 5.0 mi South 13.8 mph - N/A Rain Light Rain
10:40 AM 39.2 °F 30.8 °F 39.2 °F 100% 29.27 in 5.0 mi South 15.0 mph - N/A   Overcast
10:55 AM 39.2 °F 30.8 °F 39.2 °F 100% 29.27 in 5.6 mi South 15.0 mph - N/A   Overcast
10:57 AM 39.2 °F 30.5 °F 39.2 °F 100% 29.27 in - South 16.1 mph - N/A   Overcast
11:04 AM 39.2 °F 30.8 °F 39.2 °F 100% 29.27 in 3.7 mi South 15.0 mph - N/A   Mostly Cloudy
11:06 AM 39.2 °F 30.8 °F 39.2 °F 100% 29.27 in 3.7 mi South 15.0 mph - N/A   Mostly Cloudy
12:42 PM 41.0 °F 33.9 °F 39.2 °F 93% 29.30 in 6.2 mi SSW 12.7 mph - N/A   Overcast
12:46 PM 41.0 °F 33.9 °F 39.2 °F 93% 29.30 in 6.2 mi SSW 12.7 mph - N/A   Overcast
12:55 PM 42.8 °F 36.6 °F 39.2 °F 87% 29.30 in - SSW 11.5 mph - N/A   Overcast
1:00 PM 43 °F - 39 °F 81% 29.31 in 9 mi SSW 13.4 mph - -   Partly Cloudy
1:18 PM 44.6 °F 38.4 °F 39.2 °F 81% 29.30 in 6.2 mi SSW 12.7 mph - N/A   Mostly Cloudy
1:25 PM 44.6 °F 38.1 °F 37.4 °F 76% 29.30 in 6.2 mi SSW 13.8 mph - N/A   Mostly Cloudy
1:29 PM 44.6 °F 37.8 °F 37.4 °F 76% 29.30 in 6.2 mi SSW 15.0 mph - N/A   Mostly Cloudy
1:39 PM 44.6 °F 37.4 °F 37.4 °F 76% 29.30 in 6.2 mi SW 16.1 mph - N/A   Mostly Cloudy
1:55 PM 44.6 °F 38.4 °F 37.4 °F 76% 29.30 in 6.2 mi SSW 12.7 mph - N/A   Mostly Cloudy
2:12 PM 44.6 °F 38.8 °F 35.6 °F 71% 29.30 in 6.2 mi SW 11.5 mph - N/A   Mostly Cloudy
2:25 PM 44.6 °F 38.4 °F 35.6 °F 71% 29.30 in 6.2 mi SW 12.7 mph - N/A   Mostly Cloudy
2:28 PM 44.6 °F 38.8 °F 33.8 °F 66% 29.30 in 6.2 mi SW 11.5 mph - N/A   Mostly Cloudy
2:55 PM 44.6 °F 39.2 °F 33.8 °F 66% 29.30 in 6.2 mi SW 10.4 mph - N/A   Mostly Cloudy
3:25 PM 46.4 °F 42.4 °F 33.8 °F 62% 29.33 in 6.2 mi SSW 8.1 mph - N/A   Scattered Clouds
3:55 PM 46.4 °F 42.9 °F 33.8 °F 62% 29.33 in 6.2 mi SSW 6.9 mph - N/A   Mostly Cloudy
4:25 PM 46.4 °F 43.5 °F 33.8 °F 62% 29.33 in 6.2 mi South 5.8 mph - N/A   Unknown
4:31 PM 46.4 °F 44.3 °F 33.8 °F 62% 29.33 in 6.2 mi South 4.6 mph - N/A   Unknown
4:55 PM 46.4 °F 45.2 °F 33.8 °F 62% 29.33 in 6.2 mi SE 3.5 mph - N/A   Partly Cloudy
5:25 PM 44.6 °F 43.1 °F 33.8 °F 66% 29.33 in 6.2 mi SE 3.5 mph - N/A   Overcast
5:55 PM 44.6 °F 43.1 °F 33.8 °F 66% 29.33 in 6.2 mi East 3.5 mph - N/A   Overcast
6:25 PM 41.0 °F 35.8 °F 33.8 °F 76% 29.33 in 6.2 mi NE 8.1 mph - N/A   Overcast
6:55 PM 41.0 °F 37.1 °F 35.6 °F 81% 29.36 in 6.2 mi NE 5.8 mph - N/A   Light Drizzle
7:00 PM 40 °F - 36 °F 82% 29.36 in 6 mi NE 4.5 mph - - Rain Light Drizzle
7:20 PM 41.0 °F - 37.4 °F 87% 29.36 in 4.3 mi NNE 2.3 mph - N/A   Light Drizzle
7:25 PM 41.0 °F 39.0 °F 37.4 °F 87% 29.36 in 5.6 mi North 3.5 mph - N/A   Drizzle
7:38 PM 41.0 °F 38.0 °F 37.4 °F 87% 29.36 in 5.0 mi WNW 4.6 mph - N/A   Light Drizzle
7:43 PM 41.0 °F 37.1 °F 37.4 °F 87% 29.36 in 4.3 mi West 5.8 mph - N/A Rain Rain
7:49 PM 41.0 °F 37.1 °F 37.4 °F 87% 29.36 in 5.0 mi West 5.8 mph - N/A Rain Light Rain
7:55 PM 41.0 °F 38.0 °F 37.4 °F 87% 29.36 in 5.0 mi West 4.6 mph - N/A   Overcast
8:08 PM 39.2 °F 35.9 °F 37.4 °F 93% 29.36 in 5.6 mi NW 4.6 mph - N/A   Light Drizzle
8:25 PM 39.2 °F 35.9 °F 37.4 °F 93% 29.36 in 6.2 mi North 4.6 mph - N/A   Overcast
8:55 PM 39.2 °F 35.9 °F 37.4 °F 93% 29.36 in 5.0 mi NNE 4.6 mph - N/A   Overcast
8:59 PM 39.2 °F 35.9 °F 37.4 °F 93% 29.36 in 4.3 mi NE 4.6 mph - N/A   Overcast
9:03 PM 41.0 °F 38.0 °F 37.4 °F 87% 29.36 in 5.0 mi ENE 4.6 mph - N/A   Overcast
9:07 PM 41.0 °F 37.1 °F 39.2 °F 93% 29.36 in 4.3 mi ENE 5.8 mph - N/A   Mostly Cloudy
9:11 PM 41.0 °F 36.4 °F 39.2 °F 93% 29.36 in 5.0 mi East 6.9 mph - N/A   Overcast
9:21 PM 41.0 °F 35.2 °F 39.2 °F 93% 29.36 in 4.3 mi East 9.2 mph - N/A   Overcast
9:25 PM 41.0 °F 34.7 °F 37.4 °F 87% 29.36 in 5.0 mi ESE 10.4 mph - N/A   Overcast
9:30 PM 41.0 °F 35.2 °F 37.4 °F 87% 29.36 in 4.3 mi ESE 9.2 mph - N/A   Overcast
9:55 PM 41.0 °F 34.7 °F 35.6 °F 81% 29.36 in 4.3 mi ESE 10.4 mph - N/A   Overcast
10:25 PM 39.2 °F 32.5 °F 35.6 °F 87% 29.39 in 3.7 mi East 10.4 mph - N/A   Overcast
10:49 PM 37.4 °F 31.4 °F 33.8 °F 87% 29.39 in 3.1 mi ESE 8.1 mph - N/A   Mostly Cloudy
10:55 PM 37.4 °F 33.8 °F 33.8 °F 87% 29.39 in 3.1 mi SE 4.6 mph - N/A   Overcast
11:11 PM 37.4 °F 32.1 °F 33.8 °F 87% 29.39 in - East 6.9 mph - N/A   Overcast
11:25 PM 37.4 °F 30.3 °F 33.8 °F 87% 29.39 in 3.1 mi East 10.4 mph - N/A   Overcast
11:55 PM 35.6 °F 28.0 °F 33.8 °F 93% 29.39 in - East 10.4 mph - N/A   Overcast